This is the latest recevied weather packets stored in our database for station/object R6HABA-13. If no packets are shown the sender has not sent any weather packets the latest 10 day(s).
| Time | Temp. | Humidity | Pressure | Rain* | Wind** | Luminosity | Snow |
|---|---|---|---|---|---|---|---|
| 1778106604 | 13.89° C | 86% | 1012 hPa | - | 2.24 m/s, 109° | - | - |
| 1778105704 | 14.44° C | 86% | 1012 hPa | - | 2.68 m/s, 109° | - | - |
| 1778105327 | -17.78° C | - | 1012 hPa | - | 0 m/s | - | - |
| 1778103904 | 14.44° C | 88% | 1012 hPa | - | 2.68 m/s, 109° | - | - |
| 1778103004 | 15.56° C | 85% | 1012 hPa | - | 2.24 m/s, 86° | - | - |
| 1778102104 | 15.56° C | 85% | 1012 hPa | - | 2.24 m/s, 86° | - | - |
| 1778101206 | 15.56° C | 85% | 1012 hPa | - | 2.24 m/s, 86° | - | - |
| 1778100303 | 15.56° C | 85% | 1012 hPa | - | 2.68 m/s, 86° | - | - |
| 1778099403 | 16.11° C | 82% | 1012 hPa | - | 2.24 m/s, 54° | - | - |
| 1778098503 | 16.11° C | 82% | 1011 hPa | - | 2.24 m/s, 54° | - | - |
| 1778097602 | 16.11° C | 82% | 1011 hPa | - | 2.24 m/s, 54° | - | - |
| 1778096703 | 16.11° C | 82% | 1011 hPa | - | 2.68 m/s, 54° | - | - |
| 1778095803 | 16.67° C | 77% | 1011 hPa | - | 2.24 m/s, 27° | - | - |
| 1778094903 | 16.67° C | 77% | 1011 hPa | - | 2.24 m/s, 27° | - | - |
| 1778094003 | 16.67° C | 77% | 1011 hPa | - | 2.24 m/s, 27° | - | - |
| 1778093103 | 16.67° C | 77% | 1011 hPa | - | 2.24 m/s, 27° | - | - |
| 1778092203 | 16.67° C | 76% | 1011 hPa | - | 1.79 m/s, 70° | - | - |
| 1778091304 | 17.78° C | 72% | 1011 hPa | - | 1.79 m/s, 57° | - | - |
| 1778090403 | 17.78° C | 75% | 1011 hPa | - | 1.79 m/s, 57° | - | - |
| 1778089503 | 17.78° C | 74% | 1011 hPa | - | 1.79 m/s, 57° | - | - |
| 1778088603 | 17.78° C | 73% | 1011 hPa | - | 1.79 m/s, 57° | - | - |
| 1778087703 | 18.89° C | 65% | 1010 hPa | - | 1.34 m/s, 88° | - | - |
| 1778087327 | -17.78° C | - | 0 hPa | - | 0 m/s | - | - |
| 1778086556 | -17.78° C | - | 0 hPa | - | 0 m/s | - | - |
| 1778085003 | 18.89° C | 73% | 1010 hPa | - | 1.34 m/s, 88° | - | - |
* Rain since midnight (hover to see other rain measurements)
** Current wind speed in m/s (hover to see current wind gust speed)